| time (UTC) | temp F | wind direction | speed knots | gust knots | rain 1hr in | rain 24hr in | rain mn in | humidity % | barometer mb |
| 20260510083149 | 71 | 183 | 0.0 | 0.0 | 0.00 | 0.00 | 0.00 | 67 | 1003.0 |
| 20260510082649 | 71 | 183 | 0.0 | 0.0 | 0.00 | 0.00 | 0.00 | 67 | 1003.1 |
| 20260510082149 | 71 | 183 | 0.0 | 0.0 | 0.00 | 0.00 | 0.00 | 67 | 1003.1 |
| 20260510081649 | 71 | 183 | 0.0 | 2.6 | 0.00 | 0.00 | 0.00 | 66 | 1003.0 |
| 20260510081149 | 71 | 183 | 0.0 | 2.6 | 0.00 | 0.00 | 0.00 | 66 | 1003.0 |
| 20260510075149 | 72 | 184 | 0.0 | 0.0 | 0.00 | 0.00 | 0.00 | 64 | 1003.0 |
| 20260510074648 | 72 | 184 | 0.0 | 0.9 | 0.00 | 0.00 | 0.00 | 64 | 1003.0 |
| 20260510073648 | 73 | 165 | 0.0 | 0.0 | 0.00 | 0.00 | 0.00 | 63 | 1003.1 |
| 20260510073149 | 73 | 165 | 0.0 | 0.0 | 0.00 | 0.00 | 0.00 | 62 | 1003.0 |
| 20260510072648 | 73 | 165 | 0.0 | 0.0 | 0.00 | 0.00 | 0.00 | 63 | 1003.0 |
| 20260510072148 | 73 | 165 | 0.0 | 1.7 | 0.00 | 0.00 | 0.00 | 62 | 1003.0 |
| 20260510071648 | 73 | 163 | 0.0 | 2.6 | 0.00 | 0.00 | 0.00 | 62 | 1003.1 |
| 20260510070648 | 73 | 238 | 0.0 | 2.6 | 0.00 | 0.00 | 0.00 | 61 | 1002.9 |
| 20260510070148 | 74 | 116 | 0.0 | 2.6 | 0.00 | 0.00 | 0.00 | 61 | 1003.0 |
| 20260510065648 | 74 | 185 | 0.0 | 0.0 | 0.00 | 0.00 | 0.00 | 61 | 1003.0 |
| 20260510065149 | 74 | 185 | 0.0 | 0.0 | 0.00 | 0.00 | 0.00 | 61 | 1002.9 |
| 20260510064648 | 74 | 185 | 0.0 | 0.0 | 0.00 | 0.00 | 0.00 | 60 | 1003.0 |
| 20260510064149 | 74 | 185 | 0.0 | 0.9 | 0.00 | 0.00 | 0.00 | 60 | 1003.0 |
| 20260510063148 | 74 | 228 | 0.0 | 1.7 | 0.00 | 0.00 | 0.00 | 60 | 1003.1 |
| 20260510062648 | 74 | 132 | 0.0 | 0.0 | 0.00 | 0.00 | 0.00 | 60 | 1003.1 |
| 20260510062148 | 74 | 132 | 0.0 | 0.0 | 0.00 | 0.00 | 0.00 | 59 | 1003.2 |
| 20260510061648 | 74 | 164 | 0.0 | 0.0 | 0.00 | 0.00 | 0.00 | 59 | 1003.2 |
| 20260510061149 | 74 | 163 | 0.0 | 0.0 | 0.00 | 0.00 | 0.00 | 59 | 1003.2 |
| 20260510060649 | 74 | 163 | 0.0 | 0.9 | 0.00 | 0.00 | 0.00 | 59 | 1003.2 |
| 20260510055648 | 75 | 167 | 0.0 | 0.0 | 0.00 | 0.00 | 0.00 | 59 | 1003.3 |
| 20260510054648 | 75 | 167 | 0.0 | 1.7 | 0.00 | 0.00 | 0.00 | 58 | 1003.4 |
| 20260510054148 | 75 | 170 | 0.0 | 1.7 | 0.00 | 0.00 | 0.00 | 58 | 1003.3 |
| 20260510053648 | 75 | 132 | 0.0 | 2.6 | 0.00 | 0.00 | 0.00 | 57 | 1003.4 |
| 20260510052648 | 75 | 110 | 0.0 | 2.6 | 0.00 | 0.00 | 0.00 | 56 | 1003.4 |
| 20260510052149 | 76 | 105 | 0.0 | 0.9 | 0.00 | 0.00 | 0.00 | 56 | 1003.4 |
| 20260510051648 | 76 | 132 | 0.0 | 1.7 | 0.00 | 0.00 | 0.00 | 56 | 1003.4 |
| 20260510051148 | 76 | 134 | 0.0 | 1.7 | 0.00 | 0.00 | 0.00 | 56 | 1003.5 |
| 20260510050649 | 76 | 177 | 0.0 | 1.7 | 0.00 | 0.00 | 0.00 | 55 | 1003.5 |
| 20260510050148 | 76 | 167 | 0.0 | 0.0 | 0.00 | 0.00 | 0.00 | 55 | 1003.5 |
| 20260510045649 | 76 | 169 | 0.0 | 0.0 | 0.00 | 0.00 | 0.00 | 55 | 1003.5 |
| 20260510045149 | 76 | 169 | 0.0 | 0.0 | 0.00 | 0.00 | 0.00 | 54 | 1003.5 |
| 20260510044648 | 76 | 169 | 0.0 | 0.0 | 0.00 | 0.00 | 0.00 | 54 | 1003.7 |
| 20260510044149 | 77 | 120 | 0.0 | 0.0 | 0.00 | 0.00 | 0.00 | 54 | 1003.6 |
| 20260510043149 | 77 | 117 | 0.0 | 0.0 | 0.00 | 0.00 | 0.00 | 53 | 1003.6 |
| 20260510042648 | 77 | 141 | 0.0 | 0.0 | 0.00 | 0.00 | 0.00 | 53 | 1003.6 |
| 20260510042148 | 77 | 110 | 0.0 | 5.2 | 0.00 | 0.00 | 0.00 | 52 | 1003.6 |
| 20260510041148 | 78 | 186 | 0.0 | 1.7 | 0.00 | 0.00 | 0.00 | 52 | 1003.6 |
| 20260510040648 | 78 | 189 | 0.0 | 1.7 | 0.00 | 0.00 | 0.00 | 52 | 1003.5 |
| 20260510040148 | 78 | 204 | 0.0 | 0.0 | 0.00 | 0.00 | 0.00 | 52 | 1003.5 |
| 20260510035648 | 78 | 211 | 0.0 | 0.0 | 0.00 | 0.00 | 0.00 | 52 | 1003.5 |
| 20260510035148 | 78 | 223 | 0.0 | 0.0 | 0.00 | 0.00 | 0.00 | 52 | 1003.5 |
| 20260510034648 | 78 | 174 | 0.0 | 0.0 | 0.00 | 0.00 | 0.00 | 52 | 1003.5 |
| 20260510034148 | 77 | 162 | 0.0 | 0.0 | 0.00 | 0.00 | 0.00 | 53 | 1003.5 |
| 20260510033648 | 77 | 162 | 0.0 | 0.0 | 0.00 | 0.00 | 0.00 | 53 | 1003.4 |
| 20260510033148 | 76 | 156 | 0.0 | 0.0 | 0.00 | 0.00 | 0.00 | 53 | 1003.4 |
| 20260510032148 | 76 | 129 | 0.0 | 0.0 | 0.00 | 0.00 | 0.00 | 52 | 1003.5 |
| 20260510031648 | 76 | 177 | 0.0 | 0.0 | 0.00 | 0.00 | 0.00 | 50 | 1003.4 |
| 20260510031148 | 76 | 177 | 0.0 | 0.0 | 0.00 | 0.00 | 0.00 | 49 | 1003.4 |
| 20260510030148 | 77 | 177 | 0.0 | 0.0 | 0.00 | 0.00 | 0.00 | 47 | 1003.4 |
| 20260510025648 | 77 | 177 | 0.0 | 0.0 | 0.00 | 0.00 | 0.00 | 47 | 1003.4 |
| 20260510025148 | 78 | 177 | 0.0 | 0.0 | 0.00 | 0.00 | 0.00 | 46 | 1003.4 |
| 20260510024648 | 78 | 177 | 0.0 | 0.0 | 0.00 | 0.00 | 0.00 | 46 | 1003.4 |
| 20260510024148 | 79 | 177 | 0.0 | 0.0 | 0.00 | 0.00 | 0.00 | 45 | 1003.2 |
| 20260510023648 | 79 | 177 | 0.0 | 0.0 | 0.00 | 0.00 | 0.00 | 44 | 1003.1 |
| 20260510023148 | 80 | 177 | 0.0 | 0.0 | 0.00 | 0.00 | 0.00 | 43 | 1003.1 |
| 20260510022648 | 80 | 178 | 0.0 | 0.0 | 0.00 | 0.00 | 0.00 | 42 | 1003.0 |
| 20260510022148 | 81 | 178 | 0.0 | 0.0 | 0.00 | 0.00 | 0.00 | 41 | 1002.9 |
| 20260510021649 | 81 | 178 | 0.0 | 0.0 | 0.00 | 0.00 | 0.00 | 41 | 1002.9 |
| 20260510020648 | 83 | 178 | 0.0 | 0.0 | 0.00 | 0.00 | 0.00 | 39 | 1002.6 |
| 20260510020148 | 83 | 178 | 0.0 | 0.0 | 0.00 | 0.00 | 0.00 | 39 | 1002.5 |
| 20260510015648 | 84 | 178 | 0.0 | 0.0 | 0.00 | 0.00 | 0.00 | 38 | 1002.4 |
| 20260510014648 | 86 | 178 | 0.0 | 0.0 | 0.00 | 0.00 | 0.00 | 36 | 1002.3 |
| 20260510013648 | 87 | 178 | 0.0 | 0.0 | 0.00 | 0.00 | 0.00 | 34 | 1002.1 |
| 20260510013148 | 88 | 178 | 0.0 | 0.0 | 0.00 | 0.00 | 0.00 | 34 | 1002.0 |
| 20260510012148 | 90 | 178 | 0.0 | 0.0 | 0.00 | 0.00 | 0.00 | 32 | 1001.9 |
| 20260510011648 | 92 | 178 | 0.0 | 0.0 | 0.00 | 0.00 | 0.00 | 31 | 1001.9 |
| 20260510011148 | 93 | 209 | 0.0 | 0.0 | 0.00 | 0.00 | 0.00 | 30 | 1002.0 |
| 20260510010648 | 93 | 209 | 0.0 | 0.0 | 0.00 | 0.00 | 0.00 | 30 | 1002.0 |
| 20260510010148 | 93 | 209 | 0.0 | 0.0 | 0.00 | 0.00 | 0.00 | 29 | 1002.0 |
| 20260510005648 | 94 | 209 | 0.0 | 0.0 | 0.00 | 0.00 | 0.00 | 30 | 1002.0 |
| 20260510005148 | 94 | 209 | 0.0 | 0.0 | 0.00 | 0.00 | 0.00 | 29 | 1002.0 |
| 20260510004148 | 94 | 209 | 0.0 | 0.0 | 0.00 | 0.00 | 0.00 | 28 | 1002.0 |
| 20260510003648 | 93 | 209 | 0.0 | 0.0 | 0.00 | 0.00 | 0.00 | 29 | 1002.0 |
| 20260510003148 | 93 | 212 | 0.0 | 0.0 | 0.00 | 0.00 | 0.00 | 28 | 1002.0 |
| 20260510002648 | 94 | 212 | 0.0 | 0.0 | 0.00 | 0.00 | 0.00 | 28 | 1002.0 |
| 20260510002148 | 95 | 212 | 0.0 | 0.0 | 0.00 | 0.00 | 0.00 | 27 | 1002.0 |
| 20260510001648 | 95 | 210 | 0.0 | 0.0 | 0.00 | 0.00 | 0.00 | 28 | 1002.1 |
| 20260510001148 | 95 | 210 | 0.0 | 0.0 | 0.00 | 0.00 | 0.00 | 27 | 1002.0 |
| 20260510000648 | 95 | 210 | 0.0 | 0.9 | 0.00 | 0.00 | 0.00 | 29 | 1002.1 |
| 20260510000148 | 95 | 210 | 0.0 | 0.9 | 0.00 | 0.00 | 0.00 | 26 | 1002.1 |
| 20260509234648 | 94 | 219 | 0.0 | 0.0 | 0.00 | 0.00 | 0.00 | 30 | 1002.2 |
| 20260509234148 | 94 | 222 | 0.0 | 0.0 | 0.00 | 0.00 | 0.00 | 27 | 1002.1 |
| 20260509233648 | 94 | 213 | 0.0 | 0.0 | 0.00 | 0.00 | 0.00 | 27 | 1002.1 |
| 20260509233148 | 94 | 218 | 0.0 | 0.0 | 0.00 | 0.00 | 0.00 | 28 | 1002.0 |
| 20260509232648 | 94 | 228 | 0.0 | 0.0 | 0.00 | 0.00 | 0.00 | 28 | 1002.1 |
| 20260509232148 | 95 | 236 | 0.0 | 0.9 | 0.00 | 0.00 | 0.00 | 28 | 1002.1 |
| 20260509231647 | 94 | 207 | 0.0 | 0.9 | 0.00 | 0.00 | 0.00 | 29 | 1002.2 |
| 20260509231148 | 94 | 212 | 0.0 | 0.0 | 0.00 | 0.00 | 0.00 | 28 | 1002.2 |
| 20260509230648 | 94 | 210 | 0.0 | 2.6 | 0.00 | 0.00 | 0.00 | 28 | 1002.2 |
| 20260509230148 | 94 | 210 | 0.0 | 2.6 | 0.00 | 0.00 | 0.00 | 28 | 1002.2 |
| 20260509225648 | 94 | 229 | 0.0 | 0.0 | 0.00 | 0.00 | 0.00 | 28 | 1002.3 |
| 20260509225148 | 94 | 217 | 0.0 | 0.0 | 0.00 | 0.00 | 0.00 | 29 | 1002.2 |
| 20260509224647 | 94 | 181 | 0.0 | 10.4 | 0.00 | 0.00 | 0.00 | 31 | 1002.2 |
| 20260509224148 | 93 | 233 | 0.9 | 10.4 | 0.00 | 0.00 | 0.00 | 28 | 1002.1 |
| 20260509223648 | 94 | 241 | 0.0 | 4.3 | 0.00 | 0.00 | 0.00 | 28 | 1002.2 |
| 20260509223148 | 95 | 205 | 0.0 | 7.8 | 0.00 | 0.00 | 0.00 | 29 | 1002.2 |
| 20260509222647 | 95 | 192 | 0.9 | 7.8 | 0.00 | 0.00 | 0.00 | 29 | 1002.3 |
| 20260509222148 | 94 | 220 | 0.0 | 2.6 | 0.00 | 0.00 | 0.00 | 31 | 1002.3 |
| 20260509221648 | 94 | 227 | 0.0 | 0.0 | 0.00 | 0.00 | 0.00 | 28 | 1002.3 |
| 20260509221148 | 93 | 222 | 0.0 | 0.0 | 0.00 | 0.00 | 0.00 | 32 | 1002.3 |
| 20260509220648 | 92 | 229 | 0.0 | 0.0 | 0.00 | 0.00 | 0.00 | 29 | 1002.4 |
| 20260509220147 | 93 | 240 | 0.0 | 10.4 | 0.00 | 0.00 | 0.00 | 30 | 1002.5 |
| 20260509215647 | 92 | 218 | 0.0 | 10.4 | 0.00 | 0.00 | 0.00 | 31 | 1002.4 |
| 20260509215147 | 93 | 226 | 5.2 | 10.4 | 0.00 | 0.00 | 0.00 | 29 | 1002.6 |
| 20260509214148 | 95 | 218 | 0.0 | 6.1 | 0.00 | 0.00 | 0.00 | 28 | 1002.6 |
| 20260509213147 | 98 | 237 | 0.0 | 0.0 | 0.00 | 0.00 | 0.00 | 28 | 1002.7 |
| 20260509212148 | 98 | 123 | 0.0 | 0.9 | 0.00 | 0.00 | 0.00 | 31 | 1002.7 |
| 20260509211647 | 97 | 124 | 0.0 | 0.9 | 0.00 | 0.00 | 0.00 | 29 | 1002.8 |
| 20260509211148 | 97 | 123 | 0.0 | 0.9 | 0.00 | 0.00 | 0.00 | 31 | 1003.0 |
| 20260509210147 | 97 | 196 | 0.0 | 0.0 | 0.00 | 0.00 | 0.00 | 32 | 1003.1 |
| 20260509205647 | 97 | 154 | 0.0 | 0.9 | 0.00 | 0.00 | 0.00 | 33 | 1003.2 |
| 20260509205148 | 97 | 126 | 0.0 | 1.7 | 0.00 | 0.00 | 0.00 | 36 | 1003.2 |
| 20260509204647 | 96 | 142 | 0.0 | 1.7 | 0.00 | 0.00 | 0.00 | 36 | 1003.3 |
| 20260509204148 | 95 | 165 | 0.0 | 1.7 | 0.00 | 0.00 | 0.00 | 38 | 1003.4 |
| 20260509203647 | 95 | 218 | 0.0 | 0.9 | 0.00 | 0.00 | 0.00 | 36 | 1003.4 |
| 20260509203148 | 95 | 129 | 0.0 | 0.9 | 0.00 | 0.00 | 0.00 | 37 | 1003.6 |
| 20260509202647 | 93 | 198 | 0.0 | 1.7 | 0.00 | 0.00 | 0.00 | 34 | 1003.7 |
| 20260509201647 | 92 | 246 | 0.0 | 0.0 | 0.00 | 0.00 | 0.00 | 36 | 1003.7 |
| 20260509201148 | 93 | 216 | 0.0 | 0.0 | 0.00 | 0.00 | 0.00 | 36 | 1003.8 |
| 20260509200647 | 93 | 221 | 0.0 | 0.0 | 0.00 | 0.00 | 0.00 | 38 | 1003.9 |
| 20260509200148 | 93 | 200 | 0.0 | 0.0 | 0.00 | 0.00 | 0.00 | 38 | 1003.9 |
| 20260509195647 | 93 | 124 | 0.0 | 0.0 | 0.00 | 0.00 | 0.00 | 39 | 1004.0 |
| 20260509194647 | 92 | 214 | 0.0 | 0.0 | 0.00 | 0.00 | 0.00 | 37 | 1004.0 |
| 20260509194147 | 92 | 182 | 0.0 | 7.8 | 0.00 | 0.00 | 0.00 | 38 | 1004.1 |
| 20260509193147 | 93 | 222 | 0.9 | 7.8 | 0.00 | 0.00 | 0.00 | 40 | 1004.2 |
| 20260509192647 | 94 | 186 | 0.0 | 2.6 | 0.00 | 0.00 | 0.00 | 40 | 1004.2 |
| 20260509192147 | 93 | 142 | 0.0 | 2.6 | 0.00 | 0.00 | 0.00 | 43 | 1004.2 |
| 20260509191647 | 93 | 148 | 0.0 | 1.7 | 0.00 | 0.00 | 0.00 | 43 | 1004.3 |
| 20260509190647 | 93 | 245 | 0.0 | 0.9 | 0.00 | 0.00 | 0.00 | 38 | 1004.4 |
| 20260509190147 | 92 | 168 | 0.0 | 0.9 | 0.00 | 0.00 | 0.00 | 43 | 1004.6 |
| 20260509185147 | 92 | 167 | 0.0 | 4.3 | 0.00 | 0.00 | 0.00 | 40 | 1004.8 |
| 20260509184147 | 92 | 145 | 0.0 | 5.2 | 0.00 | 0.00 | 0.00 | 43 | 1005.0 |
| 20260509183647 | 91 | 107 | 0.9 | 2.6 | 0.00 | 0.00 | 0.00 | 42 | 1005.0 |
| 20260509183147 | 91 | 126 | 0.0 | 1.7 | 0.00 | 0.00 | 0.00 | 42 | 1005.2 |
| 20260509182647 | 91 | 127 | 0.0 | 2.6 | 0.00 | 0.00 | 0.00 | 43 | 1005.3 |
| 20260509182148 | 91 | 108 | 0.0 | 2.6 | 0.00 | 0.00 | 0.00 | 41 | 1005.4 |
| 20260509181147 | 90 | 172 | 0.0 | 1.7 | 0.00 | 0.00 | 0.00 | 41 | 1005.7 |
| 20260509180647 | 90 | 172 | 0.0 | 1.7 | 0.00 | 0.00 | 0.00 | 43 | 1005.8 |
| 20260509180147 | 89 | 125 | 0.0 | 1.7 | 0.00 | 0.00 | 0.00 | 45 | 1005.9 |
| 20260509175647 | 89 | 198 | 0.0 | 0.9 | 0.00 | 0.00 | 0.00 | 45 | 1006.0 |
| 20260509174647 | 88 | 213 | 0.0 | 2.6 | 0.00 | 0.00 | 0.00 | 44 | 1006.1 |
| 20260509174147 | 88 | 161 | 0.9 | 2.6 | 0.00 | 0.00 | 0.00 | 45 | 1006.1 |
| 20260509173647 | 87 | 134 | 0.0 | 0.9 | 0.00 | 0.00 | 0.00 | 47 | 1006.1 |
| 20260509173147 | 87 | 132 | 0.0 | 0.9 | 0.00 | 0.00 | 0.00 | 48 | 1006.2 |
| 20260509172147 | 86 | 221 | 0.0 | 4.3 | 0.00 | 0.00 | 0.00 | 48 | 1006.4 |
| 20260509171646 | 85 | 221 | 0.9 | 4.3 | 0.00 | 0.00 | 0.00 | 46 | 1006.6 |
| 20260509171147 | 85 | 163 | 0.9 | 4.3 | 0.00 | 0.00 | 0.00 | 50 | 1006.5 |
| 20260509170647 | 85 | 178 | 0.0 | 1.7 | 0.00 | 0.00 | 0.00 | 51 | 1006.5 |
| 20260509170147 | 84 | 183 | 0.0 | 1.7 | 0.00 | 0.00 | 0.00 | 49 | 1006.4 |
| 20260509165647 | 84 | 121 | 0.0 | 0.0 | 0.00 | 0.00 | 0.00 | 52 | 1006.4 |
| 20260509165147 | 84 | 228 | 0.0 | 0.0 | 0.00 | 0.00 | 0.00 | 51 | 1006.5 |
| 20260509164647 | 83 | 227 | 0.0 | 1.7 | 0.00 | 0.00 | 0.00 | 53 | 1006.6 |
| 20260509163647 | 83 | 199 | 0.0 | 5.2 | 0.00 | 0.00 | 0.00 | 53 | 1006.7 |
| 20260509162647 | 83 | 231 | 0.0 | 5.2 | 0.00 | 0.00 | 0.00 | 52 | 1006.8 |
| 20260509162147 | 83 | 149 | 0.0 | 5.2 | 0.00 | 0.00 | 0.00 | 53 | 1006.8 |
| 20260509161647 | 82 | 152 | 0.9 | 5.2 | 0.00 | 0.00 | 0.00 | 56 | 1006.9 |
| 20260509161147 | 81 | 186 | 0.0 | 2.6 | 0.00 | 0.00 | 0.00 | 58 | 1006.8 |
| 20260509160647 | 81 | 218 | 0.0 | 0.0 | 0.00 | 0.00 | 0.00 | 55 | 1007.0 |
| 20260509160146 | 80 | 218 | 0.0 | 1.7 | 0.00 | 0.00 | 0.00 | 60 | 1007.0 |
| 20260509155647 | 80 | 218 | 0.0 | 1.7 | 0.00 | 0.00 | 0.00 | 62 | 1006.9 |
| 20260509155147 | 79 | 224 | 0.0 | 4.3 | 0.00 | 0.00 | 0.00 | 61 | 1007.0 |
| 20260509154646 | 78 | 216 | 0.0 | 4.3 | 0.00 | 0.00 | 0.00 | 62 | 1007.1 |
| 20260509154147 | 78 | 233 | 0.0 | 0.0 | 0.00 | 0.00 | 0.00 | 64 | 1007.2 |
| 20260509153646 | 77 | 234 | 0.0 | 0.0 | 0.00 | 0.00 | 0.00 | 66 | 1007.2 |
| 20260509153147 | 76 | 243 | 0.0 | 0.0 | 0.00 | 0.00 | 0.00 | 67 | 1007.1 |
| 20260509152647 | 76 | 244 | 0.0 | 0.0 | 0.00 | 0.00 | 0.00 | 69 | 1007.1 |
| 20260509152147 | 75 | 244 | 0.0 | 0.0 | 0.00 | 0.00 | 0.00 | 71 | 1007.1 |
| 20260509151646 | 74 | 244 | 0.0 | 0.0 | 0.00 | 0.00 | 0.00 | 74 | 1007.2 |
| 20260509151147 | 73 | 244 | 0.0 | 0.0 | 0.00 | 0.00 | 0.00 | 77 | 1007.2 |
| 20260509150647 | 73 | 244 | 0.0 | 0.0 | 0.00 | 0.00 | 0.00 | 78 | 1007.1 |
| 20260509150146 | 72 | 246 | 0.0 | 0.0 | 0.00 | 0.00 | 0.00 | 82 | 1007.2 |
| 20260509145646 | 71 | 246 | 0.0 | 0.0 | 0.00 | 0.00 | 0.00 | 83 | 1007.4 |
| 20260509144647 | 70 | 316 | 0.0 | 0.0 | 0.00 | 0.00 | 0.00 | 88 | 1007.5 |
| 20260509144147 | 69 | 19 | 0.0 | 0.0 | 0.00 | 0.00 | 0.00 | 89 | 1007.5 |
| 20260509143646 | 68 | 13 | 0.0 | 0.0 | 0.00 | 0.00 | 0.00 | 90 | 1007.6 |
| 20260509143147 | 68 | 13 | 0.0 | 0.0 | 0.00 | 0.00 | 0.00 | 90 | 1007.6 |
| 20260509142646 | 67 | 12 | 0.0 | 0.0 | 0.00 | 0.00 | 0.00 | 90 | 1007.6 |
| 20260509142146 | 66 | 11 | 0.0 | 0.0 | 0.00 | 0.00 | 0.00 | 91 | 1007.7 |
| 20260509141646 | 66 | 11 | 0.0 | 0.0 | 0.00 | 0.00 | 0.00 | 91 | 1007.8 |
| 20260509141146 | 66 | 11 | 0.0 | 0.0 | 0.00 | 0.00 | 0.00 | 91 | 1007.8 |
| 20260509140146 | 65 | 11 | 0.0 | 0.0 | 0.00 | 0.00 | 0.00 | 91 | 1007.9 |
| 20260509134646 | 64 | 11 | 0.0 | 0.0 | 0.00 | 0.00 | 0.00 | 92 | 1008.1 |
| 20260509133146 | 63 | 11 | 0.0 | 0.0 | 0.00 | 0.00 | 0.00 | 92 | 1008.0 |
| 20260509132646 | 62 | 11 | 0.0 | 0.0 | 0.00 | 0.00 | 0.00 | 92 | 1008.1 |
| 20260509132147 | 62 | 11 | 0.0 | 0.0 | 0.00 | 0.00 | 0.00 | 92 | 1008.1 |
| 20260509131646 | 61 | 11 | 0.0 | 0.0 | 0.00 | 0.00 | 0.00 | 92 | 1008.0 |
| 20260509131146 | 61 | 11 | 0.0 | 0.0 | 0.00 | 0.00 | 0.00 | 92 | 1008.0 |
| 20260509130146 | 60 | 11 | 0.0 | 0.0 | 0.00 | 0.00 | 0.00 | 91 | 1007.9 |
| 20260509125646 | 59 | 11 | 0.0 | 0.0 | 0.00 | 0.00 | 0.00 | 91 | 1007.9 |
| 20260509125146 | 59 | 11 | 0.0 | 0.0 | 0.00 | 0.00 | 0.00 | 91 | 1007.8 |
| 20260509124646 | 59 | 11 | 0.0 | 0.0 | 0.00 | 0.00 | 0.00 | 91 | 1007.7 |
| 20260509124146 | 59 | 11 | 0.0 | 0.0 | 0.00 | 0.00 | 0.00 | 90 | 1007.6 |
| 20260509123646 | 59 | 11 | 0.0 | 0.0 | 0.00 | 0.00 | 0.00 | 90 | 1007.6 |
| 20260509123146 | 59 | 11 | 0.0 | 0.0 | 0.00 | 0.00 | 0.00 | 90 | 1007.5 |
| 20260509122646 | 58 | 11 | 0.0 | 0.0 | 0.00 | 0.00 | 0.00 | 92 | 1007.5 |
| 20260509122146 | 58 | 11 | 0.0 | 0.0 | 0.00 | 0.00 | 0.00 | 90 | 1007.5 |
| 20260509121646 | 58 | 11 | 0.0 | 0.0 | 0.00 | 0.00 | 0.00 | 90 | 1007.4 |
| 20260509121147 | 58 | 11 | 0.0 | 0.0 | 0.00 | 0.00 | 0.00 | 90 | 1007.3 |
| 20260509120646 | 58 | 11 | 0.0 | 0.0 | 0.00 | 0.00 | 0.00 | 89 | 1007.3 |
| 20260509120146 | 58 | 11 | 0.0 | 0.0 | 0.00 | 0.00 | 0.00 | 89 | 1007.1 |
| 20260509115646 | 58 | 11 | 0.0 | 0.0 | 0.00 | 0.00 | 0.00 | 89 | 1007.1 |
| 20260509115146 | 58 | 11 | 0.0 | 0.0 | 0.00 | 0.00 | 0.00 | 89 | 1007.0 |
| 20260509114646 | 58 | 11 | 0.0 | 0.0 | 0.00 | 0.00 | 0.00 | 89 | 1006.9 |
| 20260509113646 | 59 | 11 | 0.0 | 0.0 | 0.00 | 0.00 | 0.00 | 89 | 1006.8 |
| 20260509113146 | 59 | 11 | 0.0 | 0.0 | 0.00 | 0.00 | 0.00 | 89 | 1006.7 |
| 20260509112146 | 59 | 11 | 0.0 | 0.0 | 0.00 | 0.00 | 0.00 | 89 | 1006.5 |
| 20260509111146 | 59 | 11 | 0.0 | 0.0 | 0.00 | 0.00 | 0.00 | 88 | 1006.5 |
| 20260509110646 | 59 | 11 | 0.0 | 0.0 | 0.00 | 0.00 | 0.00 | 88 | 1006.5 |
| 20260509110146 | 59 | 11 | 0.0 | 0.0 | 0.00 | 0.00 | 0.00 | 88 | 1006.4 |
| 20260509105646 | 59 | 11 | 0.0 | 0.0 | 0.00 | 0.00 | 0.00 | 88 | 1006.5 |
| 20260509104646 | 59 | 11 | 0.0 | 0.0 | 0.00 | 0.00 | 0.00 | 88 | 1006.4 |
| 20260509104146 | 59 | 11 | 0.0 | 0.0 | 0.00 | 0.00 | 0.00 | 64 | 1006.5 |
| 20260509103646 | 59 | 128 | 0.0 | 0.0 | 0.00 | 0.00 | 0.00 | 3 | 1006.6 |
| 20260509103146 | 60 | 130 | 0.0 | 0.0 | 0.00 | 0.00 | 0.00 | 3 | 1006.7 |
| 20260509102646 | 60 | 86 | 0.0 | 0.0 | 0.00 | 0.00 | 0.00 | 3 | 1006.7 |
| 20260509102146 | 60 | 117 | 0.0 | 0.0 | 0.00 | 0.00 | 0.00 | 3 | 1006.7 |
| 20260509100646 | 60 | 117 | 0.0 | 0.0 | 0.00 | 0.00 | 0.00 | 3 | 1006.6 |
| 20260509100146 | 60 | 115 | 0.0 | 0.0 | 0.00 | 0.00 | 0.00 | 3 | 1006.5 |
| 20260509095646 | 60 | 116 | 0.0 | 0.0 | 0.00 | 0.00 | 0.00 | 3 | 1006.7 |
| 20260509094646 | 61 | 115 | 0.0 | 0.0 | 0.00 | 0.00 | 0.00 | 3 | 1006.7 |
| 20260509094146 | 61 | 115 | 0.0 | 0.0 | 0.00 | 0.00 | 0.00 | 3 | 1006.7 |
| 20260509093646 | 61 | 116 | 0.0 | 0.0 | 0.00 | 0.00 | 0.00 | 3 | 1006.9 |
| 20260509093146 | 61 | 116 | 0.0 | 0.0 | 0.00 | 0.00 | 0.00 | 3 | 1006.8 |
| 20260509092146 | 60 | 148 | 0.0 | 0.0 | 0.00 | 0.00 | 0.00 | 3 | 1006.7 |
| 20260509091646 | 60 | 148 | 0.0 | 0.0 | 0.00 | 0.00 | 0.00 | 4 | 1006.6 |
| 20260509091146 | 60 | 148 | 0.0 | 0.0 | 0.00 | 0.00 | 0.00 | 11 | 1006.6 |
| 20260509090646 | 61 | 148 | 0.0 | 0.0 | 0.00 | 0.00 | 0.00 | 15 | 1006.4 |
| 20260509090146 | 61 | 148 | 0.0 | 0.0 | 0.00 | 0.00 | 0.00 | 12 | 1006.2 |
| 20260509085646 | 62 | 148 | 0.0 | 0.0 | 0.00 | 0.00 | 0.00 | 17 | 1006.3 |
| 20260509085146 | 62 | 148 | 0.0 | 0.0 | 0.00 | 0.00 | 0.00 | 23 | 1006.4 |
| 20260509084645 | 62 | 148 | 0.0 | 0.0 | 0.00 | 0.00 | 0.00 | 29 | 1006.4 |
| 20260509084146 | 63 | 148 | 0.0 | 0.0 | 0.00 | 0.00 | 0.00 | 31 | 1006.4 |
| 20260509083646 | 63 | 148 | 0.0 | 0.0 | 0.00 | 0.00 | 0.00 | 34 | 1006.3 |